Regional Weather Roundup
Issued by NWS Charleston, SC

Current Version | Previous Version | Graphics & Text | Print | Product List | Glossary On
Versions: 1 2 3 4 5 6 7 8 9 10 11 12 13 14 15 16 17 18 19 20 21 22 23 24 25 26 27 28 29 30 31 32 33 34 35 36 37 38 39 40 41 42 43 44 45 46 47 48 49 50
417
ASUS42 KCHS 290013
RWRCHS

REGIONAL WEATHER ROUNDUP
NATIONAL WEATHER SERVICE CHARLESTON SC
800 PM EDT SAT MAY 28 2016

NOTE: "FAIR" INDICATES FEW OR NO CLOUDS BELOW 12,000 FEET WITH NO
SIGNIFICANT WEATHER AND/OR OBSTRUCTIONS TO VISIBILITY.

NOT ALL STATIONS ARE QUALITY CONTROLLED. USE DATA WITH CAUTION...
ESPECIALLY DEWPOINT OBSERVATIONS.

SCZ027-030-031-034>040-042>050-290100-
...SOUTHEAST SOUTH CAROLINA...

CITY           SKY/WX    TMP DP  RH WIND       PRES   REMARKS
N CHARLESTON   RAIN      70  67  90 N14       30.06F FOG
6HR MIN TEMP:  70; 6HR MAX TEMP:  73; 6HR PCP:  1.56;

WATERFRONT PRK   N/A     70  69  97 N15       30.03F
MOUNT PLEASANT HVY RAIN  70  68  94 N8        30.05F
JOHNS ISLAND   HVY RAIN  70  70 100 N15G21    30.04R VSB 1
PINOPOLIS      NOT AVBL
MONCKS CORNER  RAIN      64  63  94 N6        30.10R
SUMMERVILLE    RAIN      70  70 100 N7        30.10R
BEAUFORT MCAS  RAIN      70  68  93 NE15      30.05F FOG
6HR MIN TEMP:  69; 6HR MAX TEMP:  75; 6HR PCP:  0.57;

BEAUFORT ARPT  RAIN      70  68  94 NE21      30.04F
HILTON HEAD IS RAIN      70  68  94 N12G22    30.06S
WALTERBORO     RAIN      70  70 100 NE9       30.10S
ALLENDALE      LGT RAIN  68  64  88 CALM      30.10R

...SOUTHERN MIDLANDS AND PEE DEE...

CITY           SKY/WX    TMP DP  RH WIND       PRES   REMARKS
GEORGETOWN     LGT RAIN  70  68  94 N6        30.08
KINGSTREE      CLOUDY    70  68  94 CALM      30.10S
ORANGEBURG     LGT RAIN  70  66  87 E3        30.11S
6HR MIN TEMP:  70; 6HR MAX TEMP:  83; 6HR PCP:  0.06;

BARNWELL       DRIZZLE   72  70  94 E7        30.11S
AIKEN          RAIN      70  68  94 SE8       30.14R
MANNING        LGT RAIN  68  68 100 CALM      30.11S
COLUMBIA       LGT RAIN  73  68  84 E3        30.11S
6HR MIN TEMP:  72; 6HR MAX TEMP:  85; 6HR PCP:  0.03;

SUMTER         LGT RAIN  72  68  88 SE6       30.09S
6HR MIN TEMP:  72; 6HR MAX TEMP:  84; 6HR PCP:  0.03;

FLORENCE       LGT RAIN  73  69  87 N3        30.11S
6HR MIN TEMP:  72; 6HR MAX TEMP:  85; 6HR PCP:  0.08;

MYRTLE BEACH   CLOUDY    73  66  78 N6        30.09S
N MYRTLE BEACH RAIN      74  71  91 CALM      30.07S FOG
6HR MIN TEMP:  73; 6HR MAX TEMP:  79; 6HR PCP:  0.06;


$$

GAZ063-065-086>088-099>101-113>116-118-119-134>141-150-290100-
...SOUTHEAST GEORGIA...

CITY           SKY/WX    TMP DP  RH WIND       PRES   REMARKS
SAVANNAH ARPT  CLOUDY    72  66  81 N12       30.06R
6HR MIN TEMP:  72; 6HR MAX TEMP:  80; 6HR PCP:  0.01;

HUNTER AAF     CLOUDY    72  68  89 VRB5      30.02S
6HR MIN TEMP:  71; 6HR MAX TEMP:  80; 6HR PCP:  0.09;

FORT STEWART   CLOUDY    73  66  78 NE9       30.04S
6HR MIN TEMP:  73; 6HR MAX TEMP:  84;

STATESBORO     CLOUDY    74  64  73 NE8       30.09R
SYLVANIA       CLOUDY    72  65  78 SE3       30.11R
CLAXTON        FAIR      74  66  75 N10       30.07F

...CSRA...CENTRAL AND FAR SOUTHEAST GEORGIA...

CITY           SKY/WX    TMP DP  RH WIND       PRES   REMARKS
THOMSON        CLOUDY    79  70  73 NE9       30.13F
AUGUSTA-BUSH   CLOUDY    74  72  93 SE7       30.09R
6HR MIN TEMP:  73; 6HR MAX TEMP:  84; 6HR PCP:  0.19;

AUGUSTA-DANIEL CLOUDY    80  67  64 N3        30.10R
SWAINSBORO     FAIR      73  68  83 NE8       30.09R
VIDALIA        CLOUDY    79  66  65 E3        30.07R
EASTMAN        FAIR      83  64  53 NE8       30.08R
HAZLEHURST     FAIR      83  65  53 NE9       30.04R
ALMA           PTCLDY    82  64  54 NE10G18   30.03R
6HR MIN TEMP:  82; 6HR MAX TEMP:  88;

WAYCROSS       PTCLDY    82  65  56 E12       30.02S
JESUP          FAIR      70  63  78 E7        30.06S
BAXLEY         FAIR      81  64  57 E9        30.04S
BRUNSWICK      CLOUDY    77  70  78 NE9       30.05R
SAINT SIMONS   CLOUDY    74  67  78 N9        30.02S
6HR MIN TEMP:  74; 6HR MAX TEMP:  84;


$$

SCZ027-028-034-036>038-045-046-048>050-GAZ119-141-290100-
...LAKE AND SUPPLEMENTAL COASTAL OBSERVATIONS...

STATION/POSITION TIME  TEMP    WIND        PRES    WAVE   SWELL
                       AIR SEA DIR/SP/G            HT/PER HT/PER/DIR
                 (UTC) (F)     (DEG/KT/KT) (MB)    (FT/S) (FT/S/D)
WINYAH BAY       NOT AVBL
LAKE MURRAY      2300   77      90/ 12/ 14 1018.6R
ACE BASIN NERRS  NOT AVBL
FORT PULASKI     2300           20/ 18/ 22   N/A
SAPELO ISLAND    2300   73      20/ 10     1017.0S

$$

ANZ835-935-AMZ111-154-330-350-352-354-370-450-454-472-290100-
...C-MAN AND BUOY OBSERVATIONS...

STATION/POSITION TIME  TEMP    WIND        PRES    WAVE   SWELL
                       AIR SEA DIR/SP/G            HT/PER HT/PER/DIR
                 (UTC) (F)     (DEG/KT/KT) (MB)    (FT/S) (FT/S/D)
BUOY 41004       2350   76 77   60/ 19/ 23 1015.0F   9/ 9   5/ 9
BUOY 41008       2350   74 76  360/ 16/ 17 1016.7R   7/ 7   3/100/ 9
FOLLY BEACH CMAN 2300   70     350/ 19/ 25 1017.2F
CAPERS NEARSHORE 2308   72 76   10/ 19/ 25 1016.6F
FRIPP NEARSHORE  2308   72 76   30/ 23/ 29 1016.4F


STATION/POSITION TIME  TEMP    WIND        PRES    WAVE   SWELL
                       AIR SEA DIR/SP/G            HT/PER HT/PER/DIR
                 (UTC) (F)     (DEG/KT/KT) (MB)    (FT/S) (FT/S/D)
5E ST. MARYS GA  2301      78                N/A     6/ 5   2/100/11
FRYING PAN BUOY  2300   77 76   60/ 19/ 23 1017.3R
BUOY 41025       2350   78 78  130/ 12/ 16 1020.2S   4/ 8   3/130/ 8
CAPE LOOKOUT NC  2300   75      60/ 10/ 10 1019.4R
BUOY 41002       2350   76 76  130/ 14/ 16 1018.1R   5/ 5   2/110/ 7
BUOY 41010       2320   79 79  250/  4/  6 1015.7R
ST AUGUSTINE FL  0000   75 80  360/ 18/ 20 1017.2F


$$




USA.gov is the U.S. government's official web portal to all federal, state and local government web resources and services.